When you browse on this site, cookies collect data to enhance your experience and personalize the content and advertising you see.
Visit our Privacy Policy to learn more. By continuing to use the site, you agree to this use of cookies and data.

Tiempo cada hora Kumasi

Hoy, 3 Julio, Viernes

Tiempo Temperatura Precipitaciones Viento Presión Humedad
00:00 +26°C° 0 mm 3 mps 756 mmHg 87%
01:00 +26°C° 0.1 mm 3 mps 756 mmHg 88%
02:00 +26°C° 0.1 mm 3 mps 756 mmHg 89%
03:00 +26°C° 0.1 mm 2 mps 755 mmHg 90%
04:00 +26°C° 0.7 mm 3 mps 756 mmHg 90%
05:00 +26°C° 0.7 mm 3 mps 756 mmHg 90%
06:00 +26°C° 0.7 mm 3 mps 756 mmHg 90%
07:00 +27°C° 0 mm 3 mps 756 mmHg 86%
08:00 +28°C° 0 mm 3 mps 757 mmHg 82%
09:00 +29°C° 0 mm 4 mps 757 mmHg 77%
10:00 +30°C° 0 mm 4 mps 756 mmHg 75%
11:00 +30°C° 0 mm 4 mps 756 mmHg 72%
12:00 +32°C° 0 mm 4 mps 756 mmHg 70%
13:00 +32°C° 0.7 mm 4 mps 755 mmHg 71%
14:00 +32°C° 0.7 mm 5 mps 754 mmHg 71%
15:00 +32°C° 0.7 mm 5 mps 754 mmHg 72%
16:00 +30°C° 0.4 mm 5 mps 754 mmHg 76%
17:00 +29°C° 0.4 mm 5 mps 754 mmHg 80%
18:00 +28°C° 0.4 mm 5 mps 755 mmHg 84%
19:00 +28°C° 0 mm 5 mps 755 mmHg 85%
20:00 +27°C° 0 mm 5 mps 756 mmHg 85%
21:00 +27°C° 0 mm 4 mps 756 mmHg 86%
22:00 +27°C° 0 mm 4 mps 756 mmHg 86%
23:00 +27°C° 0 mm 4 mps 756 mmHg 85%

Mañana, 4 Julio, Sábado

Tiempo Temperatura Precipitaciones Viento Presión Humedad
00:00 +27°C° 0 mm 4 mps 756 mmHg 85%
01:00 +27°C° 0 mm 4 mps 756 mmHg 85%
02:00 +27°C° 0 mm 3 mps 756 mmHg 86%
03:00 +27°C° 0 mm 3 mps 755 mmHg 86%
04:00 +27°C° 0.1 mm 3 mps 756 mmHg 87%
05:00 +26°C° 0.1 mm 3 mps 756 mmHg 87%
06:00 +26°C° 0.1 mm 3 mps 756 mmHg 87%
07:00 +27°C° 0.2 mm 4 mps 756 mmHg 85%
08:00 +28°C° 0.2 mm 4 mps 757 mmHg 82%
09:00 +28°C° 0.2 mm 4 mps 757 mmHg 80%
10:00 +29°C° 1.2 mm 4 mps 757 mmHg 79%
11:00 +29°C° 1.2 mm 4 mps 757 mmHg 77%
12:00 +30°C° 1.2 mm 4 mps 757 mmHg 76%
13:00 +29°C° 1.8 mm 4 mps 756 mmHg 80%
14:00 +28°C° 1.8 mm 5 mps 756 mmHg 84%
15:00 +27°C° 1.8 mm 5 mps 755 mmHg 88%
16:00 +26°C° 3.3 mm 5 mps 755 mmHg 90%
17:00 +26°C° 3.3 mm 6 mps 755 mmHg 91%
18:00 +26°C° 3.3 mm 7 mps 756 mmHg 93%
19:00 +26°C° 0.2 mm 6 mps 756 mmHg 92%
20:00 +26°C° 0.2 mm 5 mps 757 mmHg 92%
21:00 +26°C° 0.2 mm 4 mps 757 mmHg 92%
22:00 +26°C° 0.1 mm 3 mps 757 mmHg 92%
23:00 +26°C° 0.1 mm 3 mps 757 mmHg 92%

Pasado mañana, 5 Julio, Domingo

Tiempo Temperatura Precipitaciones Viento Presión Humedad
00:00 +26°C° 0.1 mm 3 mps 757 mmHg 92%
01:00 +25°C° 0.3 mm 3 mps 756 mmHg 93%
02:00 +25°C° 0.3 mm 3 mps 756 mmHg 93%
03:00 +25°C° 0.3 mm 3 mps 756 mmHg 93%
04:00 +25°C° 0.7 mm 2 mps 756 mmHg 93%
05:00 +25°C° 0.7 mm 2 mps 756 mmHg 93%
06:00 +25°C° 0.7 mm 1 mps 756 mmHg 93%
07:00 +25°C° 0.6 mm 2 mps 757 mmHg 92%
08:00 +26°C° 0.6 mm 3 mps 757 mmHg 91%
09:00 +26°C° 0.6 mm 3 mps 758 mmHg 90%
10:00 +27°C° 0 mm 3 mps 758 mmHg 86%
11:00 +28°C° 0 mm 3 mps 757 mmHg 82%
12:00 +28°C° 0 mm 3 mps 757 mmHg 78%
13:00 +29°C° 0.1 mm 3 mps 756 mmHg 76%
14:00 +29°C° 0.1 mm 3 mps 756 mmHg 74%
15:00 +30°C° 0.1 mm 3 mps 755 mmHg 72%
16:00 +29°C° 0.1 mm 3 mps 755 mmHg 75%
17:00 +28°C° 0.1 mm 3 mps 756 mmHg 79%
18:00 +28°C° 0.1 mm 2 mps 756 mmHg 83%
19:00 +27°C° 0 mm 2 mps 756 mmHg 84%
20:00 +27°C° 0 mm 3 mps 757 mmHg 85%
21:00 +27°C° 0 mm 3 mps 757 mmHg 86%
22:00 +26°C° 0 mm 2 mps 757 mmHg 87%
23:00 +26°C° 0 mm 2 mps 757 mmHg 88%

6 Julio, Lunes

Tiempo Temperatura Precipitaciones Viento Presión Humedad
00:00 +26°C° 0 mm 2 mps 756 mmHg 89%
01:00 +26°C° 0 mm 2 mps 756 mmHg 90%
02:00 +26°C° 0 mm 2 mps 756 mmHg 90%
03:00 +25°C° 0 mm 2 mps 756 mmHg 90%
04:00 +25°C° 0 mm 2 mps 756 mmHg 91%
05:00 +25°C° 0 mm 2 mps 756 mmHg 91%
06:00 +25°C° 0 mm 2 mps 756 mmHg 92%
07:00 +26°C° 0 mm 2 mps 757 mmHg 88%
08:00 +27°C° 0 mm 3 mps 757 mmHg 84%
09:00 +28°C° 0 mm 3 mps 757 mmHg 81%
10:00 +28°C° 0 mm 3 mps 757 mmHg 78%
11:00 +29°C° 0 mm 3 mps 757 mmHg 75%
12:00 +30°C° 0 mm 3 mps 756 mmHg 72%
13:00 +30°C° 0 mm 3 mps 756 mmHg 70%
14:00 +31°C° 0 mm 3 mps 755 mmHg 68%
15:00 +31°C° 0 mm 3 mps 754 mmHg 66%
16:00 +30°C° 0.3 mm 3 mps 755 mmHg 71%
17:00 +29°C° 0.3 mm 3 mps 755 mmHg 75%
18:00 +28°C° 0.3 mm 3 mps 755 mmHg 79%
19:00 +28°C° 0 mm 3 mps 755 mmHg 81%
20:00 +27°C° 0 mm 4 mps 756 mmHg 82%
21:00 +27°C° 0 mm 4 mps 756 mmHg 83%
22:00 +27°C° 0 mm 3 mps 756 mmHg 84%
23:00 +26°C° 0 mm 3 mps 756 mmHg 85%

7 Julio, Martes

Tiempo Temperatura Precipitaciones Viento Presión Humedad
00:00 +26°C° 0 mm 2 mps 756 mmHg 86%
01:00 +26°C° 0.5 mm 2 mps 756 mmHg 88%
02:00 +26°C° 0.5 mm 2 mps 756 mmHg 89%
03:00 +26°C° 0.5 mm 2 mps 756 mmHg 90%
04:00 +26°C° 0.1 mm 2 mps 756 mmHg 90%
05:00 +26°C° 0.1 mm 3 mps 756 mmHg 90%
06:00 +26°C° 0.1 mm 3 mps 756 mmHg 89%
07:00 +26°C° 0 mm 3 mps 756 mmHg 87%
08:00 +27°C° 0 mm 3 mps 757 mmHg 84%
09:00 +28°C° 0 mm 3 mps 757 mmHg 81%
10:00 +28°C° 0.2 mm 3 mps 757 mmHg 79%
11:00 +29°C° 0.2 mm 4 mps 756 mmHg 77%
12:00 +29°C° 0.2 mm 4 mps 756 mmHg 75%
13:00 +29°C° 0 mm 4 mps 755 mmHg 75%
14:00 +29°C° 0 mm 4 mps 755 mmHg 74%
15:00 +29°C° 0 mm 4 mps 754 mmHg 74%
16:00 +29°C° 0 mm 4 mps 754 mmHg 77%
17:00 +28°C° 0 mm 4 mps 754 mmHg 80%
18:00 +27°C° 0 mm 4 mps 754 mmHg 83%
19:00 +27°C° 0 mm 4 mps 755 mmHg 83%
20:00 +27°C° 0 mm 3 mps 756 mmHg 84%
21:00 +27°C° 0 mm 3 mps 756 mmHg 85%
22:00 +26°C° 0 mm 3 mps 756 mmHg 85%
23:00 +26°C° 0 mm 3 mps 756 mmHg 86%

8 Julio, Miércoles

Tiempo Temperatura Precipitaciones Viento Presión Humedad
00:00 +26°C° 0 mm 3 mps 756 mmHg 86%
01:00 +26°C° 0.1 mm 3 mps 756 mmHg 86%
02:00 +26°C° 0.1 mm 3 mps 756 mmHg 87%
03:00 +26°C° 0.1 mm 2 mps 755 mmHg 87%
04:00 +26°C° 0.1 mm 2 mps 755 mmHg 87%
05:00 +26°C° 0.1 mm 2 mps 756 mmHg 88%
06:00 +26°C° 0.1 mm 2 mps 756 mmHg 88%
07:00 +26°C° 0.1 mm 3 mps 756 mmHg 86%
08:00 +27°C° 0.1 mm 3 mps 757 mmHg 85%
09:00 +27°C° 0.1 mm 3 mps 757 mmHg 83%
10:00 +28°C° 0.1 mm 4 mps 757 mmHg 78%
11:00 +29°C° 0.1 mm 4 mps 756 mmHg 74%
12:00 +30°C° 0.1 mm 5 mps 756 mmHg 69%
13:00 +32°C° 0 mm 5 mps 755 mmHg 69%
14:00 +32°C° 0 mm 5 mps 754 mmHg 68%
15:00 +32°C° 0 mm 5 mps 754 mmHg 68%
16:00 +30°C° 0 mm 5 mps 754 mmHg 72%
17:00 +29°C° 0 mm 4 mps 754 mmHg 76%
18:00 +28°C° 0 mm 4 mps 754 mmHg 80%
19:00 +27°C° 0 mm 4 mps 755 mmHg 81%
20:00 +27°C° 0 mm 4 mps 755 mmHg 82%
21:00 +26°C° 0 mm 4 mps 756 mmHg 83%
22:00 +26°C° 0 mm 3 mps 756 mmHg 83%
23:00 +26°C° 0 mm 3 mps 756 mmHg 83%
Mostrar más